FW8531 Weather Reports


time (UTC)temp
C
wind
direction
speed
KPH
gust
KPH
rain 1hr
cm
rain 24hr
cm
rain mn
cm
humidity
%
barometer
mb
20260503223006 11 233 1.6 8.0 0.00 0.71 0.13 45 1006.8
20260503221511 11 232 0.0 8.0 0.00 0.71 0.13 47 1006.5
20260503220021 11 285 1.6 9.7 0.00 0.71 0.13 47 1006.3
20260503214520 11 244 1.6 8.0 0.00 0.71 0.13 49 1006.1
20260503213006 11 278 3.2 16.1 0.00 0.71 0.13 48 1006.0
20260503211509 11 191 3.2 12.9 0.00 0.71 0.13 49 1005.7
20260503210012 11 290 1.6 17.7 0.00 0.71 0.13 49 1005.5
20260503204519 12 32 3.2 16.1 0.00 0.71 0.13 52 1005.3
20260503203031 11 249 1.6 9.7 0.00 0.71 0.13 53 1005.1
20260503201524 11 15 6.4 17.7 0.00 0.71 0.13 53 1005.1
20260503200012 10 253 3.2 17.7 0.00 0.71 0.13 62 1005.2
20260503194517 10 233 0.0 8.0 0.00 0.71 0.13 70 1005.3
20260503193021 9 5 0.0 8.0 0.00 0.71 0.13 73 1005.4
20260503191524 10 271 3.2 14.5 0.00 0.71 0.13 64 1005.5
20260503190026 10 337 1.6 12.9 0.00 0.71 0.13 63 1005.4
20260503184517 10 316 4.8 11.3 0.00 0.71 0.13 64 1005.6
20260503183024 8 41 4.8 9.7 0.00 0.71 0.13 67 1005.6
20260503181524 8 23 4.8 14.5 0.00 0.71 0.13 69 1005.5
20260503180023 8 312 3.2 11.3 0.00 0.71 0.13 73 1005.4
20260503174509 7 217 1.6 6.4 0.00 0.71 0.13 83 1005.4
20260503173013 7 30 1.6 9.7 0.00 0.71 0.13 85 1005.3
20260503171520 7 272 3.2 14.5 0.00 0.71 0.13 83 1005.3
20260503081515 7 335 0.0 3.2 0.03 0.69 0.10 96 1006.6
20260503071506 7 347 1.6 6.4 0.00 0.66 0.08 96 1007.1
20260503054509 8 216 0.0 1.6 0.03 0.64 0.05 96 1008.3
20260503053004 8 216 0.0 1.6 0.03 0.64 0.05 96 1008.3
20260503051503 8 210 0.0 0.0 0.03 0.64 0.05 96 1008.3
20260503050002 8 210 0.0 0.0 0.05 0.64 0.05 96 1008.6
20260503044508 8 202 0.0 0.0 0.05 0.61 0.03 96 1009.2
20260503043002 8 165 0.0 0.0 0.08 0.61 0.03 96 1009.3
20260503041502 8 152 0.0 0.0 0.10 0.61 0.03 96 1009.5
20260503040003 8 152 0.0 0.0 0.08 0.58 0.00 96 1009.5
20260503034503 8 151 0.0 0.0 0.08 0.56 0.56 96 1009.5
20260503033002 8 151 0.0 0.0 0.08 0.53 0.53 95 1009.4
20260503031503 8 134 0.0 1.6 0.10 0.51 0.51 95 1009.7
20260503030006 8 127 0.0 1.6 0.15 0.51 0.51 95 1009.9
20260503024502 8 126 0.0 0.0 0.20 0.48 0.48 95 1010.0
20260503023002 8 163 0.0 0.0 0.20 0.46 0.46 95 1010.2
20260503021502 8 143 0.0 1.6 0.18 0.41 0.41 95 1010.2
20260503020007 8 130 0.0 1.6 0.18 0.36 0.36 95 1010.3
20260503014505 8 146 0.0 1.6 0.13 0.28 0.28 95 1010.3
20260503013003 8 146 0.0 0.0 0.13 0.25 0.25 95 1010.6
20260503011503 8 146 0.0 0.0 0.10 0.23 0.23 95 1010.9
20260503010005 8 155 0.0 0.0 0.08 0.18 0.18 95 1010.7
20260503004504 8 155 0.0 0.0 0.05 0.15 0.15 95 1010.6
20260503003007 8 155 0.0 0.0 0.05 0.13 0.13 94 1010.8
20260503001503 8 155 0.0 0.0 0.10 0.13 0.13 94 1010.7
20260503000006 8 152 0.0 1.6 0.10 0.10 0.10 94 1010.8
20260502234508 9 142 0.0 1.6 0.10 0.10 0.10 93 1010.6
20260502233006 10 144 0.0 4.8 0.08 0.08 0.08 89 1010.5
20260502230012 10 203 0.0 3.2 0.00 0.00 0.00 83 1010.5
20260502224507 10 185 0.0 4.8 0.00 0.00 0.00 82 1010.3